Starlink 31460

operational
NORAD ID: 59008 Int'l Des: 2024-036 Owner: SPXS Country: US Constellation: starlink
LEOCIRCULAR

Starlink 31460について

説明を読み込み中...

リアルタイム位置

3D地球を読み込み中...

次回通過

高度履歴

Altitude vs Time

uPlot chart will show altitude changes over time

軌道要素

1 59008U 24036L 25351.99623783 -.00000530 00000-0 -57904-5 0 9990
2 59008 53.1619 97.7294 0001056 78.6134 281.4985 15.30197046102813
Epoch: Dec 17, 2025 • Age: 19 hours

現在のステータス

高度 481.0 km
速度 7.63 km/s
衛星直下点 52.98°N, 178.27°E
打ち上げ日 Feb 23, 2024
運用期間 1.8 years
タイプ internet

技術仕様

分類 Payload
質量 730.00 kg
乾燥質量 700.00 kg
総質量 730.00 kg
長さ 0.30 m
直径 4.10 m
スパン 29.00 m
形状 Box + pan
製造者 SPXS
バスタイプ Starlink V2M
フェーズステータス In Orbit
所有者/国 SPXS/US

大規模コンステレーション

Loading constellations...